TimeMDT,TemperatureF,Dew PointF,Humidity,Sea Level PressureIn,VisibilityMPH,Wind Direction,Wind SpeedMPH,Gust SpeedMPH,PrecipitationIn,Events,Conditions,WindDirDegrees,DateUTC
12:53 AM,62.1,54.0,75,29.96,10.0,Calm,Calm,-,N/A,,Clear,0,2013-09-04 06:53:00
1:53 AM,63.0,55.0,75,29.96,10.0,South,5.8,-,N/A,,Clear,170,2013-09-04 07:53:00
2:53 AM,62.1,55.0,78,29.96,10.0,Calm,Calm,-,N/A,,Clear,0,2013-09-04 08:53:00
3:53 AM,64.0,55.9,75,29.96,10.0,Calm,Calm,-,N/A,,Clear,0,2013-09-04 09:53:00
4:53 AM,66.9,55.9,68,29.97,10.0,Calm,Calm,-,N/A,,Clear,0,2013-09-04 10:53:00
5:53 AM,66.9,57.0,70,29.97,10.0,Calm,Calm,-,N/A,,Partly Cloudy,0,2013-09-04 11:53:00
6:53 AM,63.0,55.9,78,30.01,10.0,Calm,Calm,-,N/A,,Clear,0,2013-09-04 12:53:00
7:53 AM,68.0,57.9,70,30.02,10.0,Calm,Calm,-,N/A,,Clear,0,2013-09-04 13:53:00
8:53 AM,75.9,57.0,52,30.01,10.0,Calm,Calm,-,N/A,,Clear,0,2013-09-04 14:53:00
9:53 AM,81.0,57.9,45,30.02,10.0,NNE,4.6,-,N/A,,Clear,30,2013-09-04 15:53:00
10:53 AM,84.0,57.0,40,30.03,10.0,Variable,3.5,-,N/A,,Clear,0,2013-09-04 16:53:00
11:53 AM,88.0,55.9,34,30.01,10.0,Calm,Calm,-,N/A,,Clear,0,2013-09-04 17:53:00
12:53 PM,89.1,54.0,30,29.99,10.0,South,6.9,-,N/A,,Clear,180,2013-09-04 18:53:00
1:53 PM,91.9,51.1,25,29.97,10.0,Variable,4.6,-,N/A,,Clear,0,2013-09-04 19:53:00
2:53 PM,93.9,48.9,21,29.95,10.0,SSW,8.1,-,N/A,,Clear,210,2013-09-04 20:53:00
3:53 PM,93.0,46.9,20,29.93,10.0,Variable,3.5,-,N/A,,Partly Cloudy,0,2013-09-04 21:53:00
4:53 PM,93.9,46.0,19,29.91,10.0,West,5.8,-,N/A,,Partly Cloudy,260,2013-09-04 22:53:00
5:53 PM,95.0,46.0,19,29.91,10.0,ENE,5.8,-,N/A,,Overcast,60,2013-09-04 23:53:00
6:53 PM,88.0,54.0,31,29.93,10.0,ENE,13.8,-,N/A,,Clear,60,2013-09-05 00:53:00
7:53 PM,80.1,57.0,45,29.95,10.0,East,4.6,-,N/A,,Clear,100,2013-09-05 01:53:00
8:53 PM,77.0,59.0,54,29.97,10.0,East,4.6,-,N/A,,Scattered Clouds,90,2013-09-05 02:53:00
9:53 PM,77.0,60.1,56,29.97,10.0,East,8.1,-,N/A,,Partly Cloudy,80,2013-09-05 03:53:00
10:53 PM,73.9,59.0,59,29.96,10.0,East,5.8,-,N/A,,Clear,100,2013-09-05 04:53:00
11:53 PM,72.0,59.0,64,29.98,10.0,NNW,4.6,-,N/A,,Clear,330,2013-09-05 05:53:00